www.pogodaiklimat.ru

Погода и климат >> Архив погоды >> Россия >> Якутия >> Юрты


ПОГОДА в Юртах

  • Прогноз погоды в Юртах
  • Монитор погоды в Юртах

АРХИВ ПОГОДЫ в Юртах

Время (UTC), дата Ветер
(напр.,м/с)
 
Видим.   Явления Облачность Т
(С)
Тd
(С)
f
(%)
Тe
(С)
Тes
(С)
Комфортность P
(гПа)
Po
(гПа)
Тmin
(С)
Tmax
(С)
R
(мм)
R24
(мм)
S
(см)
09 19.03 штиль 0 50 км ясно -26.4 -31.9 60 -26 -26 1025.7 945.7 -22.5
12 19.03 штиль 0 50 км ясно -32.5 -34.8 80 -33 -33 опасность
обморожения
1028.2 946.2
15 19.03 штиль 0 50 км ясно -34.7 -37.1 79 -35 -35 опасность
обморожения
1029.4 946.6
18 19.03 Ю 1 50 км ясно -35.0 -37.4 79 -40 -40 опасность
обморожения
1030.1 947.1
21 19.03 Ю 1 50 км ясно -38.6 -40.8 80 -44 -44 опасность
обморожения
1031.9 947.5 -38.6 21
00 20.03 Ю 4 50 км ясно -31.2 -34.3 74 -43 -41 опасность
обморожения
1029.6 947.9 -39.9
03 20.03 Ю 3 50 км ясно -24.1 -29.6 60 -33 -29 опасность
обморожения
1026.5 947.3
06 20.03 штиль 0 50 км ясно -22.3 -29.0 54 -22 -20 1025.2 946.6
09 20.03 З 1 50 км ясно -23.6 -30.2 55 -27 -27 1025.9 946.8 -22.3
12 20.03 штиль 0 50 км ясно -31.2 -33.0 84 -31 -31 опасность
обморожения
1030.5 948.7
15 20.03 штиль 0 50 км ясно -32.8 -34.5 85 -33 -33 опасность
обморожения
1030.7 948.3
18 20.03 штиль 0 50 км ясно -34.2 -35.9 84 -34 -34 опасность
обморожения
1031.1 948.4
21 20.03 штиль 0 50 км ясно -36.3 -37.8 86 -36 -36 опасность
обморожения
1032.7 949.0 -36.3 21
00 21.03 Ю 4 50 км ясно -31.8 -34.8 75 -43 -41 опасность
обморожения
1031.1 949.0
03 21.03 Ю 4 50 км ясно -24.1 -29.6 60 -34 -31 опасность
обморожения
1027.2 947.9
06 21.03 штиль 0 50 км ясно -20.7 -28.4 50 -21 -18 1024.9 946.8
09 21.03 штиль 0 50 км ясно -23.6 -30.2 55 -24 -24 1025.6 946.5 -20.4
12 21.03 штиль 0 50 км ясно -33.3 -36.3 74 -33 -33 опасность
обморожения
1029.8 947.3
15 21.03 штиль 0 50 км ясно -34.2 -35.9 84 -34 -34 опасность
обморожения
1030.3 947.6
18 21.03 штиль 0 50 км ясно -35.8 -37.5 84 -36 -36 опасность
обморожения
1031.6 948.1
21 21.03 штиль 0 50 км ясно -38.3 -39.7 87 -38 -38 опасность
обморожения
1031.5 947.2 -38.3 21
00 22.03 ЮВ 1 50 км ясно -31.9 -33.7 84 -36 -33 опасность
обморожения
1029.8 947.8 -41.8
03 22.03 Ю 1 50 км 3/0
[Ci fib]
-25.0 -30.5 60 -29 -23 1025.9 946.4
06 22.03 штиль 0 50 км 3/0
[Ci fib]
-21.1 -28.8 50 -21 -19 1022.2 944.2
09 22.03 штиль 0 50 км 3/0
[Ci fib]
-23.3 -28.9 60 -23 -23 1021.9 943.3 -20.8
12 22.03 штиль 0 50 км 10/0
[Ci fib]
-28.2 -30.7 79 -28 -28 1022.7 942.5
18 22.03 штиль 0 50 км 8/0
[Ci fib]
-33.4 -35.0 85 -33 -33 опасность
обморожения
1022.6 940.7
21 22.03 штиль 0 50 км 4/0
[Ci fib]
-38.3 -39.7 87 -38 -38 опасность
обморожения
1023.6 939.9 -38.3 21
00 23.03 Ю 1 50 км 4/0
[Ci fib]
-28.5 -31.0 79 -32 -29 опасность
обморожения
1018.9 938.9
03 23.03 ЮЗ 1 50 км 3/0
[Ci fib]
-22.2 -27.8 60 -25 -20 1014.4 936.7
06 23.03 штиль 0 50 км 4/0
[Ci fib]
-19.1 -25.9 55 -19 -17 1011.6 935.0
09 23.03 штиль 0 50 км 3/0
[Ci fib]
-20.1 -25.9 60 -20 -20 1011.2 934.3 -19.1
12 23.03 штиль 0 50 км ясно -28.8 -31.2 80 -29 -29 1014.5 934.6
15 23.03 штиль 0 50 км ясно -31.8 -34.1 80 -32 -32 опасность
обморожения
1015.6 934.3
18 23.03 штиль 0 50 км ясно -34.4 -36.8 79 -34 -34 опасность
обморожения
1016.6 934.8
21 23.03 штиль 0 50 км ясно -38.3 -39.7 87 -38 -38 опасность
обморожения
1018.0 934.8 -38.3 21
00 24.03 штиль 0 50 км ясно -29.3 -31.8 79 -29 -25 1015.6 935.5
03 24.03 СЗ 2 50 км 3/0
[Ci fib]
-20.8 -26.5 60 -27 -22 1011.8 934.7
06 24.03 З 1 50 км ясно -16.5 -24.5 50 -19 -17 1010.1 934.3
09 24.03 штиль 0 50 км ясно -18.6 -25.4 55 -19 -19 1011.2 934.7 -16.3
12 24.03 штиль 0 50 км ясно -22.0 -24.6 79 -22 -22 1013.4 935.7
15 24.03 штиль 0 50 км ясно -24.8 -27.3 80 -25 -25 1015.4 936.7
18 24.03 штиль 0 50 км ясно -28.8 -31.2 80 -29 -29 1017.8 937.7
21 24.03 штиль 0 50 км 10/0
[Cs]
-26.9 -29.3 80 -27 -27 1016.9 937.6 -28.8 21
00 25.03 штиль 0 50 км 10/0
[Cs]
-24.8 -27.3 80 -25 -21 1018.0 938.4
03 25.03 штиль 0 50 км 10/0
[Cs]
-20.4 -26.2 60 -20 -15 1015.4 938.1
06 25.03 ЮЗ 1 50 км 10/0
[Cs]
-15.6 -22.6 55 -18 -16 1013.7 937.9
09 25.03 штиль 0 50 км 10/0
[Cs]
-17.2 -24.1 55 -17 -17 1014.4 938.1 -15.3
12 25.03 штиль 0 50 км 4/0
[Ci fib]
-26.2 -28.7 79 -26 -26 1019.4 940.1
15 25.03 штиль 0 50 км ясно -27.9 -30.3 80 -28 -28 1018.8 938.9
18 25.03 штиль 0 50 км 4/0
[Ci fib]
-30.6 -33.0 79 -31 -31 опасность
обморожения
1020.1 939.4
21 25.03 штиль 0 50 км 6/0
[Ci fib]
-32.4 -34.8 79 -32 -32 опасность
обморожения
1021.4 935.5 -32.4 21
00 26.03 Ю 1 50 км 4/0
[Ci fib]
-24.8 -27.2 80 -28 -25 1019.1 940.3 -35.0
03 26.03 СЗ 2 50 км 3/0
[Ci fib]
-18.1 -23.9 60 -24 -19 1015.6 939.0
06 26.03 штиль 0 50 км ясно -12.6 -20.9 50 -13 -10 1012.1 937.3

 

Местоположение метеостанции Юрты (Якутия, Россия): широта 64.05 долгота 141.80 высота над уровнем моря 590 м.

В архиве по умолчанию представлена погода в Юртах за последнюю неделю. Архивные данные за месяц целиком и за предыдущие месяцы, начиная с января 2011 года, Вы можете получить, выбрав интересующий диапазон дат из раскрывающегося списка и нажав кнопку "Ввод!".


*Определитесь, кто Вы:
робот инопланетянин человек

Внимание! Время в таблицах - всемирное. Для получения местного времени необходимо прибавить поправку, которая равна 10 ч.

Смотрите также архив погоды в соседних городах и на ближайших метеорологических станциях:

Погода в Агаякане (Якутия, Россия) (80 км)
Погода в Усть-Нере (Якутия, Россия) (82 км)
Погода в Оймяконе (Якутия, Россия) (110 км)
Погода в Восточной (Якутия, Россия) (142 км)
Погода в Делянкире (Якутия, Россия) (187 км)
Погода в Усть-Моме (Якутия, Россия) (275 км)
Погода в Теплом Ключе (Якутия, Россия) (286 км)
Погода в Томпо (Якутия, Россия) (293 км)
Погода в Иэме (Якутия, Россия) (317 км)
Погода в Сусумане (Магаданская область, Россия) (344 км)

Пояснения к столбцам:

Ветер - указаны скорость ветра в м/с - средняя за 10 мин, порывы в срок и между сроками (в фигурных скобках) и направление, откуда дует ветер: С - северный, СВ - северо-восточный, В - восточный, ЮВ - юго-восточный, Ю - южный, ЮЗ - юго-западный, З - западный, СЗ - северо-западный.
Видимость - горизонтальная дальность видимости в метрах или километрах. При видимости от 1 до 10 км при отсутствии осадков обычно наблюдается дымка, при ухудшении видимости до 1 км и менее - туман. В сухую погоду видимость может ухудшаться дымом, пылью или мглою.
Явления - указаны атмосферные явления, наблюдавшиеся в срок или в последний час перед сроком; фигурными скобками обозначены явления, наблюдавшиеся между сроками (за 1-3 часа до срока); квадратными скобками обозначены град или гололедные отложения с указанием их диаметра в мм.
Облачность - указаны через наклонную черту общая и нижняя облачность в баллах и высота нижней границы облаков в метрах; квадратными скобками обозначены формы облаков: Ci - перистые, Cs - перисто-слоистые, Cc - перисто-кучевые, Ac - высококучевые, As - высокослоистые, Sc - слоисто-кучевые, Ns - слоисто-дождевые, Cu - кучевые, Cb - кучево-дождевые. Подробнее классификацию облаков см. в Атласе облаков (PDF).
T - Температура воздуха - температура, измеренная на высоте 2 м над землей.
Td - Температура точки росы - температура, при понижении до которой содержащийся в воздухе водяной пар достигнет насыщения.
f - Относительная влажность воздуха - влажноcть воздуха, измеренная на высоте 2 м над землей.
Te - Эффективная температура - температура, которую ощущает одетый по сезону человек в тени. Характеристика душности погоды. При расчете учитывается влияние влажности воздуха и скорости ветра на теплоощущения человека.
Tes - Эффективная температура на солнце - температура, которую ощущает человек, с поправкой на солнечный нагрев. Характеристика знойности погоды. Зависит от высоты солнца над горизонтом, облачности и скорости ветра. Ночью, в пасмурную погоду, а также при ветре 12 м/с и более поправка равна нулю.
P - Атмосферное давление - приведенное к уровню моря атмосферное давление.
Po - Атмосферное давление - измеренное на уровне метеостанции атмосферное давление.
Tmin - Минимальная температура - минимум температуры воздуха на высоте 2 м над землей.
Tmax - Максимальная температура - максимум температуры воздуха на высоте 2 м над землей.
R - Количество осадков - Количество выпавших осадков за период времени, мм. При наведении курсора мыши на число - период времени, за который выпало указанное количество осадков.
R24 - Количество осадков - Количество выпавших осадков за 24 часа, мм.
S - Снежный покров - Высота снежного покрова, см. При наведении курсора мыши на число - состояние снежного покрова и степень покрытия местности в баллах.